Weather History for PASX - March, 2013

Change the Weather History Date:

Tuesday, March 26, 2013

  Actual Average Record
Temperature  
Mean Temperature 3 °F -  
Max Temperature 17 °F 36 °F 47 °F (1970)
Min Temperature -11 °F 21 °F -11 °F (1976)
Degree Days  
Heating Degree Days 62    
Moisture  
Dew Point -3 °F    
Average Humidity 70    
Maximum Humidity 92    
Minimum Humidity 45    
Precipitation  
Precipitation 0.00 in - - ()
Sea Level Pressure  
Sea Level Pressure 29.98 in    
Wind  
Wind Speed 3 mph (NW)    
Max Wind Speed 10 mph    
Max Gust Speed -    
Visibility 10 miles    
Events      
Averages and records for this station are not official NWS values.
T = Trace of Precipitation, MM = Missing Value Source: NWS Daily Summary

Daily Weather History Graph

Daily Weather History Graph

Search for Another Location

Airport or City:

Trip Planner

Search our weather history database for the weather conditions in past years. The results will help you decide how hot, cold, wet, or windy it might be!

Date:

Astronomy

Mar. 26, 2013 Rise Set
Actual Time 7:45 AM AKDT 8:35 PM AKDT
Civil Twilight 7:02 AM AKDT 9:18 PM AKDT
Nautical Twilight 6:10 AM AKDT 10:10 PM AKDT
Astronomical Twilight 5:11 AM AKDT 11:10 PM AKDT
Moon 8:30 PM AKDT (3/26) 7:10 AM AKDT (3/26)
Length of Visible Light 14h 15m
Length of Day
12h 49m
Full, 100% of the Moon is Illuminated
Mar 26
Full
Mar 27
Full
Apr 2
Last Quarter
Apr 10
New
Apr 18
First Quarter

Hourly Weather History & Observations

Time (AKDT) Temp. Windchill Dew Point Humidity Pressure Visibility Wind Dir Wind Speed Gust Speed Precip Events Conditions
12:16 AM 8.6 °F -1.3 °F 3.2 °F 79% 29.71 in 10.0 mi West 5.8 mph - N/A   Overcast
12:36 AM 6.8 °F -3.5 °F 1.4 °F 79% 29.72 in 10.0 mi NW 5.8 mph - N/A   Overcast
12:56 AM 8.6 °F 0.1 °F 3.2 °F 79% 29.74 in 4.0 mi West 4.6 mph - N/A   Overcast
1:16 AM 8.6 °F 2.0 °F 1.4 °F 73% 29.75 in 10.0 mi WNW 3.5 mph - N/A   Overcast
1:36 AM 6.8 °F - 1.4 °F 79% 29.76 in 10.0 mi Calm Calm - N/A   Overcast
1:56 AM 3.2 °F - -5.8 °F 66% 29.77 in 10.0 mi Calm Calm - N/A   Overcast
2:16 AM 3.2 °F - -0.4 °F 85% 29.78 in 10.0 mi Calm Calm - N/A   Overcast
2:36 AM 3.2 °F - -2.2 °F 78% 29.79 in 10.0 mi Calm Calm - N/A   Overcast
2:56 AM -0.4 °F - -5.8 °F 78% 29.80 in 10.0 mi Calm Calm - N/A   Mostly Cloudy
3:16 AM -2.2 °F - -7.6 °F 78% 29.81 in 10.0 mi Calm Calm - N/A   Partly Cloudy
3:36 AM -2.2 °F - -5.8 °F 85% 29.82 in 10.0 mi Calm Calm - N/A   Partly Cloudy
3:56 AM -4.0 °F - -9.4 °F 78% 29.83 in 10.0 mi Calm Calm - N/A   Partly Cloudy
4:16 AM -5.8 °F - -9.4 °F 84% 29.84 in 10.0 mi Calm Calm - N/A   Clear
4:36 AM -7.6 °F - -11.2 °F 84% 29.85 in 10.0 mi Calm Calm - N/A   Clear
4:56 AM -7.6 °F - -11.2 °F 84% 29.85 in 10.0 mi Calm Calm - N/A   Partly Cloudy
5:16 AM -7.6 °F - -14.8 °F 71% 29.86 in 10.0 mi Calm Calm - N/A   Mostly Cloudy
5:36 AM -7.6 °F -16.5 °F -11.2 °F 84% 29.86 in 10.0 mi ENE 3.5 mph - N/A   Overcast
5:56 AM -9.4 °F - -16.6 °F 71% 29.87 in 10.0 mi Calm Calm - N/A   Overcast
6:16 AM -7.6 °F - -9.4 °F 92% 29.88 in 10.0 mi Calm Calm - N/A   Overcast
6:36 AM -7.6 °F - -9.4 °F 92% 29.88 in 9.0 mi Calm Calm - N/A   Overcast
6:56 AM -7.6 °F -16.5 °F -14.8 °F 71% 29.89 in 10.0 mi NNE 3.5 mph - N/A   Overcast
7:16 AM -9.4 °F - -14.8 °F 77% 29.90 in 10.0 mi Calm Calm - N/A   Overcast
7:36 AM -9.4 °F - -16.6 °F 71% 29.91 in 9.0 mi Calm Calm - N/A   Mostly Cloudy
7:56 AM -9.4 °F -18.6 °F -16.6 °F 71% 29.91 in 10.0 mi NNE 3.5 mph - N/A   Scattered Clouds
8:16 AM -11.2 °F - -16.6 °F 77% 29.92 in 10.0 mi Calm Calm - N/A   Clear
8:36 AM -9.4 °F - -11.2 °F 92% 29.93 in 10.0 mi Calm Calm - N/A   Clear
8:56 AM -9.4 °F - -13.0 °F 84% 29.94 in 10.0 mi Calm Calm - N/A   Clear
9:16 AM -7.6 °F - -11.2 °F 84% 29.95 in 10.0 mi Calm Calm - N/A   Clear
9:36 AM -2.2 °F - -5.8 °F 85% 29.96 in 10.0 mi Calm Calm - N/A   Clear
9:56 AM -2.2 °F - -5.8 °F 85% 29.97 in 10.0 mi Calm Calm - N/A   Clear
10:16 AM 1.4 °F -6.2 °F -0.4 °F 92% 29.97 in 10.0 mi ENE 3.5 mph - N/A   Clear
10:36 AM 5.0 °F -2.1 °F 3.2 °F 92% 29.98 in 10.0 mi ESE 3.5 mph - N/A   Clear
10:56 AM 8.6 °F -4.7 °F 5.0 °F 85% 29.99 in 10.0 mi ENE 9.2 mph - N/A   Clear
11:16 AM 10.4 °F -0.4 °F 1.4 °F 67% 29.99 in 10.0 mi ENE 6.9 mph - N/A   Clear
11:36 AM 12.2 °F 1.7 °F 1.4 °F 62% 30.00 in 10.0 mi East 6.9 mph - N/A   Clear
11:56 AM 12.2 °F 2.9 °F 1.4 °F 62% 30.01 in 10.0 mi East 5.8 mph - N/A   Partly Cloudy
12:16 PM 12.2 °F 0.7 °F 3.2 °F 67% 30.02 in 10.0 mi ENE 8.1 mph - N/A   Clear
12:36 PM 14.0 °F 3.9 °F 1.4 °F 57% 30.02 in 10.0 mi North 6.9 mph - N/A   Clear
12:56 PM 14.0 °F 5.1 °F 1.4 °F 57% 30.03 in 10.0 mi NE 5.8 mph - N/A   Partly Cloudy
1:16 PM 14.0 °F 8.2 °F 3.2 °F 62% 30.03 in 10.0 mi WNW 3.5 mph - N/A   Mostly Cloudy
1:36 PM 15.8 °F - 1.4 °F 53% 30.04 in 10.0 mi Calm Calm - N/A   Mostly Cloudy
1:56 PM 17.6 °F 12.3 °F 3.2 °F 53% 30.04 in 10.0 mi South 3.5 mph - N/A   Partly Cloudy
2:16 PM 15.8 °F 8.6 °F 3.2 °F 58% 30.04 in 10.0 mi WNW 4.6 mph - N/A   Partly Cloudy
2:36 PM 15.8 °F - 1.4 °F 53% 30.04 in 10.0 mi Calm Calm - N/A   Partly Cloudy
2:56 PM 17.6 °F - 3.2 °F 53% 30.05 in 10.0 mi Calm Calm - N/A   Mostly Cloudy
3:16 PM 17.6 °F 12.3 °F 3.2 °F 53% 30.05 in 10.0 mi WNW 3.5 mph - N/A   Overcast
3:36 PM 17.6 °F 8.2 °F 3.2 °F 53% 30.05 in 10.0 mi West 6.9 mph - N/A   Overcast
3:56 PM 17.6 °F 8.2 °F 3.2 °F 53% 30.06 in 10.0 mi West 6.9 mph - N/A   Mostly Cloudy
4:16 PM 17.6 °F 5.7 °F 3.2 °F 53% 30.07 in 10.0 mi NW 10.4 mph - N/A   Overcast
4:36 PM 17.6 °F 7.3 °F 3.2 °F 53% 30.07 in 10.0 mi WNW 8.1 mph - N/A   Mostly Cloudy
4:56 PM 17.6 °F 6.4 °F 5.0 °F 58% 30.07 in 10.0 mi WNW 9.2 mph - N/A   Partly Cloudy
5:16 PM 17.6 °F 9.3 °F 3.2 °F 53% 30.08 in 10.0 mi WNW 5.8 mph - N/A   Clear
5:36 PM 17.6 °F 10.7 °F 1.4 °F 49% 30.08 in 10.0 mi WNW 4.6 mph - N/A   Clear
5:56 PM 17.6 °F 6.4 °F -0.4 °F 45% 30.08 in 10.0 mi West 9.2 mph - N/A   Clear
6:16 PM 17.6 °F 7.3 °F 1.4 °F 49% 30.09 in 10.0 mi WNW 8.1 mph - N/A   Clear
6:36 PM 17.6 °F 6.4 °F 1.4 °F 49% 30.09 in 10.0 mi West 9.2 mph - N/A   Clear
6:56 PM 15.8 °F 5.1 °F 1.4 °F 53% 30.09 in 10.0 mi West 8.1 mph - N/A   Clear
7:16 PM 15.8 °F 5.1 °F 3.2 °F 58% 30.10 in 10.0 mi WNW 8.1 mph - N/A   Clear
7:36 PM 15.8 °F 4.2 °F 1.4 °F 53% 30.10 in 10.0 mi WNW 9.2 mph - N/A   Clear
7:56 PM 15.8 °F 7.2 °F 3.2 °F 58% 30.10 in 10.0 mi WNW 5.8 mph - N/A   Clear
8:16 PM 15.8 °F 6.1 °F 3.2 °F 58% 30.11 in 10.0 mi West 6.9 mph - N/A   Clear
8:36 PM 12.2 °F 4.3 °F 1.4 °F 62% 30.12 in 10.0 mi WNW 4.6 mph - N/A   Clear
8:56 PM 10.4 °F 2.2 °F 1.4 °F 67% 30.12 in 10.0 mi West 4.6 mph - N/A   Clear
9:16 PM 6.8 °F - -0.4 °F 72% 30.13 in 10.0 mi Calm Calm - N/A   Clear
9:36 PM 6.8 °F - -0.4 °F 72% 30.13 in 10.0 mi Calm Calm - N/A   Clear
9:56 PM 3.2 °F - -5.8 °F 66% 30.14 in 10.0 mi Calm Calm - N/A   Scattered Clouds
10:16 PM 1.4 °F - -4.0 °F 78% 30.14 in 10.0 mi Calm Calm - N/A   Scattered Clouds
10:36 PM 1.4 °F - -4.0 °F 78% 30.15 in 10.0 mi Calm Calm - N/A   Mostly Cloudy
10:56 PM -0.4 °F - -7.6 °F 72% 30.15 in 10.0 mi Calm Calm - N/A   Overcast
11:16 PM 1.4 °F - -5.8 °F 72% 30.16 in 10.0 mi Calm Calm - N/A   Overcast
11:36 PM 1.4 °F - -5.8 °F 72% 30.16 in 10.0 mi Calm Calm - N/A   Overcast
11:56 PM -0.4 °F - -5.8 °F 78% 30.16 in 10.0 mi Calm Calm - N/A   Overcast